Date String (YYYY-MM-DD hh:mm:ss) UTC,Instrument flags,Ambient pressure (hPa),Sample flow (lpm),Bypass flow (lpm),Sample temperature (°C),Ambient temperature (°C),ASC tube jacket temperature (°C),LED temperature (°C),Box temperature (°C),Sample RH (%),Span deviation,Mass concentration (μg/m³),Mass concentration (μg/m³),Mass concentration (μg/m³)
DateTimeUTC,F1_M11,P_M11,Q1_M11,Q2_M11,T1_M11,T2_M11,T3_M11,T4_M11,T5_M11,U1_M11,ZSPAN_M11,X0_M11,X2_M11,X1_M11
2022-06-15 13:00:00,,0824.1,5.00,0.00,28.1,27.2,00.0,37.0,30.0,14.2,-001.2,0010.49,0004.71,0003.53
2022-06-15 13:01:00,,0824.0,4.99,0.00,28.1,27.2,00.0,37.0,30.0,14.1,-001.2,0010.56,0004.66,0003.50
2022-06-15 13:02:00,,0824.0,5.00,0.00,28.1,27.2,00.0,37.0,30.0,13.9,-001.9,0010.45,0004.57,0003.47
2022-06-15 13:03:00,,0824.1,5.01,0.00,28.1,27.2,00.0,37.0,30.0,13.9,-001.6,0011.04,0004.55,0003.45
2022-06-15 13:04:00,,0824.1,4.99,0.00,28.1,27.1,00.0,37.0,30.0,13.9,-001.6,0011.51,0004.47,0003.47
2022-06-15 13:05:00,,0824.1,5.00,0.00,28.1,27.1,00.0,37.0,30.0,13.7,-001.2,0011.42,0004.46,0003.48
2022-06-15 13:06:00,,0824.0,5.00,0.00,28.1,27.1,00.0,37.0,30.0,13.4,-000.3,0011.31,0004.47,0003.50
2022-06-15 13:07:00,,0824.0,5.00,0.00,28.1,27.1,00.0,37.0,30.0,13.3,0001.1,0011.05,0004.48,0003.53
2022-06-15 13:08:00,,0824.0,4.99,0.00,28.1,27.1,00.0,37.0,30.0,13.2,0001.5,0011.08,0004.55,0003.56
2022-06-15 13:09:00,,0824.1,5.01,0.00,28.1,27.1,00.0,37.0,30.0,13.1,0001.5,0011.09,0004.59,0003.59
2022-06-15 13:10:00,,0824.1,4.99,0.00,28.1,27.1,00.0,37.0,30.0,13.0,0001.4,0011.07,0004.55,0003.61
2022-06-15 13:11:00,,0824.1,4.99,0.00,28.1,27.1,00.0,37.0,30.0,12.9,0001.5,0010.38,0004.48,0003.61
2022-06-15 13:12:00,,0824.0,5.01,0.00,28.1,27.1,00.0,37.0,30.0,12.9,0001.6,0010.25,0004.51,0003.63
2022-06-15 13:13:00,,0824.1,5.00,0.00,28.1,27.1,00.0,37.0,30.0,12.9,0001.7,0010.35,0004.57,0003.66
2022-06-15 13:14:00,,0824.1,5.00,0.00,28.0,27.1,00.0,37.0,29.9,12.9,0002.1,0009.89,0004.57,0003.67
2022-06-15 13:15:00,,0824.0,5.00,0.00,28.0,27.1,00.0,37.0,29.9,12.8,0002.1,0009.86,0004.58,0003.68
2022-06-15 13:16:00,,0824.1,5.00,0.00,28.0,27.1,00.0,37.0,29.9,12.8,0002.5,0010.57,0004.59,0003.68
2022-06-15 13:17:00,,0824.0,5.01,0.00,28.0,27.1,00.0,37.0,29.9,12.9,0002.1,0010.68,0004.60,0003.68
2022-06-15 13:18:00,,0824.1,4.99,0.00,28.0,27.0,00.0,37.0,29.9,12.9,0001.2,0010.92,0004.66,0003.68
2022-06-15 13:19:00,,0824.1,5.00,0.00,28.0,27.0,00.0,37.0,29.9,13.0,0000.8,0011.19,0004.66,0003.67
2022-06-15 13:20:00,,0824.0,5.00,0.00,28.0,27.0,00.0,36.9,29.9,13.0,0000.7,0011.21,0004.63,0003.66
2022-06-15 13:21:00,,0824.0,5.01,0.00,28.0,27.0,00.0,36.9,29.9,13.0,0001.0,0011.40,0004.63,0003.64
2022-06-15 13:22:00,,0824.1,5.00,0.00,28.0,27.0,00.0,36.9,29.9,13.0,0000.8,0011.74,0004.67,0003.64
2022-06-15 13:23:00,,0824.2,5.00,0.00,28.0,27.0,00.0,36.9,29.9,13.1,-000.1,0011.69,0004.66,0003.62
2022-06-15 13:24:00,,0824.2,4.99,0.00,28.0,27.0,00.0,36.9,29.9,13.1,-000.5,0011.76,0004.62,0003.59
2022-06-15 13:25:00,,0824.1,5.00,0.00,28.0,27.0,00.0,36.9,29.9,13.2,-000.7,0011.84,0004.67,0003.59
2022-06-15 13:26:00,,0824.1,5.01,0.00,28.0,27.0,00.0,36.9,29.9,13.3,-001.0,0011.46,0004.72,0003.58
2022-06-15 13:27:00,,0824.1,5.00,0.00,28.0,27.0,00.0,36.9,29.9,13.3,-001.1,0010.70,0004.75,0003.57
2022-06-15 13:28:00,,0824.3,5.00,0.00,28.0,27.1,00.0,36.9,29.9,13.3,-001.2,0010.60,0004.75,0003.55
2022-06-15 13:29:00,,0824.3,5.00,0.00,28.0,27.1,00.0,36.9,29.9,13.4,-001.2,0010.35,0004.68,0003.54
2022-06-15 13:30:00,,0824.2,5.00,0.00,28.0,27.1,00.0,36.9,29.9,13.4,-001.4,0010.23,0004.65,0003.52
2022-06-15 13:31:00,,0824.3,4.99,0.00,28.0,27.1,00.0,36.9,29.9,13.4,-001.3,0010.22,0004.64,0003.51
2022-06-15 13:32:00,,0824.3,5.00,0.00,28.0,27.1,00.0,36.9,29.9,13.5,-001.1,0009.95,0004.64,0003.51
2022-06-15 13:33:00,,0824.4,5.01,0.00,28.0,27.1,00.0,36.9,29.9,13.5,-000.6,0009.95,0004.61,0003.50
2022-06-15 13:34:00,,0824.4,5.00,0.00,28.0,27.1,00.0,36.9,30.0,13.5,-000.1,0010.36,0004.58,0003.49
2022-06-15 13:35:00,,0824.4,4.99,0.00,28.0,27.2,00.0,36.9,30.0,13.5,0000.1,0010.18,0004.58,0003.48
2022-06-15 13:36:00,,0824.5,4.99,0.00,28.1,27.2,00.0,36.9,30.0,13.6,0000.3,0010.36,0004.52,0003.47
2022-06-15 13:37:00,,0824.5,5.01,0.00,28.1,27.2,00.0,36.9,30.0,13.6,0000.7,0010.48,0004.50,0003.45
2022-06-15 13:38:00,,0824.5,4.99,0.00,28.1,27.2,00.0,37.0,30.0,13.5,0000.1,0011.12,0004.49,0003.43
2022-06-15 13:39:00,,0824.4,4.99,0.00,28.1,27.2,00.0,37.0,30.0,13.6,0000.5,0011.24,0004.47,0003.42
2022-06-15 13:40:00,,0824.4,5.00,0.00,28.1,27.2,00.0,37.0,30.0,13.7,0000.9,0011.31,0004.48,0003.41
2022-06-15 13:41:00,,0824.4,5.02,0.00,28.1,27.2,00.0,37.0,30.0,13.6,0001.2,0011.05,0004.40,0003.39
2022-06-15 13:42:00,,0824.4,5.00,0.00,28.1,27.2,00.0,37.0,30.0,13.5,0000.6,0011.07,0004.40,0003.39
2022-06-15 13:43:00,,0824.5,4.99,0.00,28.1,27.2,00.0,37.0,30.0,13.5,0000.0,0011.47,0004.40,0003.37
2022-06-15 13:44:00,,0824.4,5.00,0.00,28.1,27.2,00.0,37.0,30.0,13.4,0000.0,0011.18,0004.40,0003.36
2022-06-15 13:45:00,,0824.3,5.00,0.00,28.1,27.2,00.0,37.0,30.0,13.4,0000.1,0011.63,0004.39,0003.35
2022-06-15 13:46:00,,0824.3,5.01,0.00,28.1,27.2,00.0,37.0,30.0,13.4,0000.6,0012.46,0004.35,0003.34
2022-06-15 13:47:00,,0824.2,5.01,0.00,28.1,27.2,00.0,37.0,30.0,13.4,0000.5,0012.22,0004.36,0003.33
2022-06-15 13:48:00,,0824.4,5.00,0.00,28.1,27.2,00.0,37.0,30.0,13.4,0000.0,0012.43,0004.32,0003.33
2022-06-15 13:49:00,,0824.3,5.00,0.00,28.1,27.2,00.0,37.0,30.0,13.5,0000.0,0012.79,0004.28,0003.32
2022-06-15 13:50:00,,0824.4,5.00,0.00,28.1,27.2,00.0,37.0,30.1,13.7,0000.0,0012.88,0004.28,0003.30
2022-06-15 13:51:00,,0824.5,4.99,0.00,28.1,27.2,00.0,37.0,30.1,13.8,0000.0,0013.09,0004.25,0003.28
2022-06-15 13:52:00,,0824.3,4.99,0.00,28.1,27.2,00.0,37.0,30.0,13.9,0000.2,0013.79,0004.31,0003.26
2022-06-15 13:53:00,,0824.3,5.01,0.00,28.1,27.2,00.0,37.0,30.1,13.9,0000.5,0013.87,0004.33,0003.25
2022-06-15 13:54:00,,0824.3,5.01,0.00,28.1,27.2,00.0,37.0,30.1,14.0,0000.3,0013.51,0004.31,0003.23
2022-06-15 13:55:00,,0824.4,5.01,0.00,28.1,27.2,00.0,37.0,30.1,14.1,0000.2,0013.79,0004.29,0003.21
2022-06-15 13:56:00,,0824.5,4.99,0.00,28.1,27.2,00.0,37.0,30.1,14.0,-000.2,0013.77,0004.30,0003.19
2022-06-15 13:57:00,,0824.4,5.01,0.00,28.1,27.2,00.0,37.0,30.1,14.1,0000.6,0013.14,0004.32,0003.18
2022-06-15 13:58:00,,0824.4,5.01,0.00,28.2,27.2,00.0,37.0,30.1,14.1,0000.3,0012.76,0004.29,0003.16
2022-06-15 13:59:00,,0824.4,4.99,0.00,28.2,27.2,00.0,37.0,30.1,14.1,0001.1,0012.50,0004.30,0003.14
